Temp
-10 -10 -10 -10 -10 -11 -11 -11 -11 -10 -11 -11 -11 -11 -11 -11 -11 -11 -11 -11 -11 -11 -11 -11 -12 -12 -12 -12 -12 -12 -13 -13 -13 -13 -13 -13 -13 -13 -13 -13 -13 -13 -13
-11 -10 -10 -11 -10 -11 -11 -11 -11 -11 -11 -11 -11 -11 -11 -11 -11 -11 -11 -11 -11 -11 -11 -12 -12 -12 -12 -12 -12 -12 -13 -13 -13 -13 -13 -13 -13 -13 -13 -13 -14 -14 -14
-11 -11 -10 -11 -11 -11 -11 -11 -11 -11 -11 -11 -11 -11 -11 -12 -12 -11 -11 -11 -11 -12 -12 -12 -12 -12 -12 -12 -12 -13 -13 -13 -13 -13 -14 -14 -14 -14 -14 -14 -14 -14 -14
-11 -12 -11 -11 -11 -11 -11 -11 -11 -11 -11 -11 -11 -12 -12 -12 -12 -11 -11 -12 -12 -12 -12 -12 -12 -12 -12 -12 -12 -13 -13 -13 -13 -14 -14 -14 -14 -14 -14 -14 -14 -14 -14
-12 -12 -12 -12 -12 -12 -12 -11 -11 -11 -11 -11 -12 -12 -12 -12 -12 -12 -12 -12 -12 -12 -12 -12 -12 -12 -12 -12 -12 -13 -13 -14 -14 -14 -14 -15 -15 -15 -15 -15 -15 -15 -15
-12 -12 -12 -12 -12 -12 -12 -12 -12 -12 -11 -12 -12 -12 -12 -12 -12 -12 -12 -12 -13 -13 -13 -13 -13 -13 -13 -13 -13 -13 -13 -14 -14 -15 -15 -15 -15 -15 -15 -15 -15 -15 -15
-13 -12 -13 -13 -13 -13 -13 -13 -13 -12 -12 -12 -12 -12 -12 -12 -13 -13 -13 -13 -13 -13 -13 -13 -13 -13 -13 -13 -13 -14 -14 -14 -15 -15 -16 -16 -16 -16 -16 -16 -16 -16 -16
-13 -13 -13 -13 -13 -13 -13 -13 -14 -14 -13 -13 -13 -13 -13 -13 -13 -13 -13 -13 -14 -14 -14 -14 -14 -14 -14 -14 -14 -14 -14 -15 -15 -15 -16 -16 -16 -16 -16 -17 -17 -16 -17
-14 -14 -14 -14 -14 -14 -14 -14 -14 -14 -14 -14 -14 -13 -14 -14 -14 -14 -14 -14 -14 -15 -15 -15 -15 -15 -15 -15 -15 -15 -15 -15 -15 -16 -16 -17 -17 -17 -17 -17 -17 -17 -17
-15 -15 -15 -15 -14 -14 -14 -14 -14 -14 -14 -14 -15 -15 -15 -15 -15 -15 -15 -15 -15 -15 -15 -16 -16 -16 -16 -16 -16 -15 -15 -15 -16 -16 -17 -17 -17 -17 -17 -17 -17 -18 -18
-17 -17 -17 -16 -16 -15 -15 -15 -15 -15 -16 -16 -16 -16 -16 -15 -15 -16 -16 -16 -16 -17 -16 -17 -17 -17 -16 -16 -16 -16 -16 -16 -16 -17 -17 -17 -17 -17 -17 -17 -18 -18 -18
-17 -17 -18 -18 -18 -18 -18 -17 -17 -17 -17 -17 -17 -17 -17 -16 -17 -17 -17 -17 -18 -18 -18 -18 -17 -18 -17 -17 -17 -17 -17 -17 -17 -17 -17 -18 -18 -18 -17 -18 -18 -18 -18
-19 -19 -19 -19 -19 -19 -19 -19 -19 -19 -19 -18 -18 -18 -18 -18 -18 -17 -18 -18 -18 -19 -18 -18 -18 -18 -18 -18 -18 -18 -18 -18 -17 -17 -18 -18 -18 -18 -18 -18 -18 -18 -18
-20 -19 -19 -19 -19 -19 -19 -19 -19 -19 -19 -19 -19 -19 -19 -19 -19 -19 -19 -19 -19 -19 -19 -19 -19 -18 -18 -18 -18 -18 -18 -18 -18 -18 -18 -18 -18 -18 -18 -18 -18 -18 -18
-20 -20 -20 -20 -20 -20 -20 -20 -20 -19 -19 -19 -19 -19 -19 -19 -19 -19 -19 -19 -19 -19 -19 -19 -19 -19 -19 -19 -19 -19 -18 -19 -19 -18 -19 -19 -19 -18 -19 -19 -19 -19 -19
-23 -21 -20 -20 -20 -20 -20 -19 -19 -19 -19 -19 -19 -19 -19 -19 -19 -19 -19 -19 -19 -19 -19 -19 -19 -20 -20 -19 -19 -19 -19 -19 -19 -19 -19 -19 -19 -19 -19 -19 -19 -19 -19
-24 -23 -23 -23 -23 -22 -21 -21 -21 -21 -20 -20 -20 -20 -20 -19 -19 -19 -19 -19 -19 -20 -20 -20 -20 -20 -20 -20 -20 -20 -20 -19 -19 -19 -19 -19 -19 -20 -20 -20 -20 -19 -19
-26 -26 -26 -25 -24 -23 -23 -23 -23 -22 -22 -21 -21 -21 -21 -21 -21 -21 -20 -20 -20 -20 -20 -20 -20 -21 -21 -20 -20 -20 -20 -20 -20 -19 -20 -20 -20 -20 -20 -21 -20 -20 -20
-28 -28 -27 -27 -27 -26 -26 -26 -25 -25 -24 -24 -23 -23 -23 -24 -23 -22 -22 -22 -22 -22 -22 -22 -22 -22 -22 -21 -21 -21 -20 -21 -21 -21 -21 -21 -21 -21 -21 -21 -21 -21 -21
-29 -29 -28 -28 -28 -28 -28 -28 -28 -27 -27 -27 -26 -26 -26 -26 -25 -25 -24 -23 -23 -24 -24 -24 -24 -24 -23 -23 -22 -22 -22 -22 -22 -22 -22 -22 -22 -22 -22 -22 -22 -22 -22
-30 -30 -30 -30 -30 -29 -29 -29 -29 -28 -28 -28 -28 -28 -27 -27 -27 -26 -26 -26 -26 -26 -26 -25 -25 -26 -25 -25 -25 -25 -24 -25 -25 -25 -24 -24 -24 -24 -24 -24 -23 -23 -23
-32 -31 -31 -31 -31 -31 -31 -31 -31 -30 -30 -30 -30 -30 -30 -30 -30 -30 -29 -29 -29 -29 -29 -28 -28 -28 -27 -27 -27 -26 -26 -26 -26 -26 -25 -25 -26 -26 -26 -26 -26 -26 -26
-32 -32 -32 -32 -32 -32 -32 -32 -32 -31 -31 -31 -31 -31 -31 -31 -31 -31 -31 -31 -30 -30 -30 -30 -30 -30 -30 -30 -29 -29 -29 -29 -29 -28 -28 -28 -28 -27 -27 -27 -27 -27 -27
-33 -33 -33 -33 -33 -33 -32 -32 -32 -32 -32 -32 -32 -32 -32 -32 -31 -31 -31 -31 -31 -31 -31 -31 -31 -31 -30 -30 -30 -30 -30 -30 -30 -30 -30 -30 -29 -29 -29 -29 -29 -29 -29
-34 -33 -33 -33 -33 -33 -33 -33 -33 -33 -33 -33 -33 -33 -33 -32 -32 -32 -32 -32 -32 -32 -32 -32 -32 -32 -32 -32 -32 -32 -31 -31 -31 -31 -31 -31 -31 -31 -31 -30 -30 -30 -30
-34 -34 -34 -34 -34 -34 -34 -34 -34 -34 -33 -33 -33 -33 -33 -33 -33 -33 -33 -33 -33 -33 -33 -33 -33 -33 -32 -32 -32 -32 -32 -32 -32 -32 -32 -32 -31 -31 -31 -32 -31 -31 -31
Height
5750 5749 5749 5751 5752 5754 5753 5752 5752 5752 5754 5755 5756 5755 5757 5758 5759 5759 5759 5759 5759 5760 5760 5759 5759 5759 5759 5759 5759 5760 5760 5761 5761 5762 5763 5764 5765 5766 5767 5768 5769 5770 5770
5745 5744 5744 5745 5745 5743 5743 5743 5742 5742 5743 5744 5745 5746 5748 5750 5749 5750 5749 5750 5751 5752 5752 5751 5751 5751 5751 5751 5751 5751 5752 5753 5753 5754 5754 5755 5757 5757 5758 5759 5760 5760 5762
5736 5736 5736 5736 5736 5735 5734 5733 5732 5733 5735 5736 5736 5737 5739 5740 5740 5739 5739 5740 5742 5742 5742 5742 5742 5742 5742 5742 5742 5742 5743 5743 5744 5745 5746 5746 5748 5747 5749 5749 5750 5752 5752
5727 5726 5726 5726 5726 5726 5725 5723 5723 5723 5724 5724 5726 5727 5728 5729 5729 5729 5730 5731 5732 5732 5732 5732 5732 5732 5732 5732 5732 5732 5733 5733 5734 5734 5735 5736 5737 5738 5739 5740 5740 5741 5742
5717 5717 5716 5715 5716 5716 5715 5714 5714 5714 5714 5714 5715 5716 5717 5718 5717 5718 5719 5720 5720 5720 5720 5720 5721 5721 5721 5722 5722 5721 5721 5721 5722 5724 5724 5725 5726 5727 5728 5728 5730 5730 5732
5706 5705 5705 5704 5704 5704 5704 5704 5704 5704 5703 5703 5703 5704 5704 5705 5705 5706 5707 5707 5707 5708 5708 5708 5708 5708 5709 5709 5709 5709 5710 5710 5710 5711 5712 5713 5715 5716 5716 5717 5718 5720 5721
5693 5692 5691 5691 5691 5691 5691 5691 5691 5691 5691 5692 5692 5692 5692 5692 5692 5693 5693 5694 5694 5694 5694 5694 5695 5695 5695 5696 5697 5697 5697 5697 5698 5698 5700 5701 5702 5703 5704 5706 5707 5708 5709
5676 5676 5677 5677 5676 5677 5677 5676 5677 5677 5677 5677 5678 5678 5678 5679 5679 5679 5680 5680 5680 5680 5680 5681 5681 5681 5682 5682 5683 5683 5683 5683 5684 5685 5686 5687 5688 5690 5691 5693 5694 5695 5696
5658 5660 5660 5660 5660 5661 5661 5661 5661 5661 5661 5662 5662 5662 5662 5663 5664 5664 5664 5665 5665 5664 5665 5666 5666 5666 5667 5667 5667 5668 5668 5669 5670 5671 5672 5674 5675 5676 5677 5678 5679 5681 5683
5637 5640 5641 5642 5642 5643 5643 5642 5643 5644 5644 5645 5645 5645 5645 5646 5647 5647 5647 5648 5648 5648 5648 5649 5650 5650 5650 5651 5651 5652 5652 5653 5655 5656 5657 5658 5660 5661 5662 5664 5665 5667 5669
5618 5619 5620 5620 5621 5623 5624 5624 5623 5624 5625 5626 5626 5627 5628 5628 5629 5630 5629 5629 5630 5630 5631 5631 5632 5633 5634 5634 5635 5636 5637 5638 5639 5641 5642 5643 5644 5645 5646 5648 5649 5650 5652
5598 5599 5599 5599 5600 5601 5603 5604 5604 5604 5605 5606 5606 5607 5608 5609 5610 5611 5611 5611 5612 5612 5613 5613 5614 5615 5616 5617 5619 5620 5620 5622 5623 5624 5626 5627 5629 5630 5630 5631 5633 5634 5636
5577 5577 5578 5579 5579 5580 5581 5583 5584 5585 5585 5586 5586 5587 5587 5588 5590 5592 5592 5593 5593 5593 5594 5595 5595 5596 5597 5599 5600 5601 5602 5604 5605 5606 5608 5609 5611 5612 5613 5614 5615 5617 5619
5556 5557 5558 5558 5558 5559 5559 5560 5561 5563 5563 5564 5566 5566 5567 5568 5570 5572 5573 5574 5574 5574 5575 5576 5577 5578 5579 5580 5581 5583 5584 5586 5588 5589 5590 5591 5593 5594 5595 5595 5596 5597 5600
5532 5533 5534 5535 5536 5536 5536 5538 5539 5539 5540 5541 5544 5545 5546 5547 5547 5548 5550 5551 5552 5553 5555 5556 5557 5559 5559 5560 5561 5563 5565 5567 5568 5569 5570 5572 5573 5574 5574 5576 5577 5578 5579
5508 5507 5510 5511 5512 5513 5513 5513 5514 5515 5516 5517 5518 5520 5521 5523 5524 5525 5525 5526 5529 5531 5533 5534 5535 5537 5537 5539 5540 5542 5544 5546 5547 5548 5549 5550 5551 5553 5553 5554 5556 5558 5558
5486 5486 5487 5487 5487 5488 5489 5489 5490 5490 5492 5493 5492 5494 5496 5498 5499 5500 5501 5501 5503 5506 5508 5510 5511 5511 5512 5514 5515 5520 5521 5522 5522 5524 5525 5527 5528 5529 5530 5531 5533 5535 5536
5466 5466 5466 5465 5465 5466 5467 5465 5466 5466 5466 5467 5469 5468 5469 5471 5472 5474 5475 5477 5477 5479 5481 5483 5485 5486 5486 5487 5488 5492 5494 5496 5497 5498 5500 5501 5502 5503 5503 5505 5507 5510 5511
5450 5449 5448 5447 5446 5446 5446 5445 5445 5446 5446 5445 5445 5445 5444 5444 5446 5447 5448 5449 5450 5452 5454 5456 5458 5459 5460 5459 5461 5464 5466 5466 5467 5469 5471 5474 5476 5476 5476 5479 5480 5483 5485
5433 5432 5429 5428 5427 5425 5425 5425 5424 5424 5423 5423 5422 5423 5423 5422 5422 5423 5424 5424 5425 5425 5425 5426 5427 5429 5432 5432 5432 5432 5435 5437 5439 5441 5444 5445 5447 5448 5449 5450 5453 5455 5458
5416 5414 5412 5409 5406 5405 5404 5403 5402 5402 5401 5401 5399 5397 5397 5398 5398 5398 5398 5399 5399 5400 5399 5401 5400 5401 5402 5403 5403 5404 5406 5409 5411 5414 5415 5417 5416 5419 5421 5422 5425 5430 5430
5399 5396 5395 5392 5388 5387 5386 5384 5381 5380 5380 5380 5378 5378 5376 5376 5376 5376 5374 5374 5376 5375 5375 5375 5375 5375 5375 5377 5375 5377 5378 5382 5385 5387 5389 5392 5392 5394 5396 5398 5401 5403 5404
5386 5382 5379 5376 5372 5368 5366 5365 5362 5361 5361 5359 5358 5356 5354 5352 5351 5350 5350 5351 5350 5352 5354 5354 5355 5354 5354 5355 5355 5356 5356 5356 5358 5361 5364 5365 5366 5369 5372 5374 5377 5379 5383
5369 5365 5362 5359 5355 5350 5347 5344 5342 5341 5341 5339 5337 5335 5334 5332 5331 5331 5331 5332 5331 5331 5331 5332 5332 5332 5332 5332 5332 5333 5335 5335 5336 5338 5340 5342 5344 5346 5349 5352 5354 5357 5360
5352 5347 5344 5340 5336 5331 5328 5323 5318 5317 5316 5315 5314 5312 5311 5310 5309 5307 5307 5307 5307 5306 5307 5307 5307 5308 5310 5310 5310 5311 5312 5313 5314 5315 5318 5321 5323 5325 5327 5330 5332 5335 5339
5332 5327 5322 5318 5314 5310 5306 5302 5297 5295 5293 5291 5289 5287 5286 5284 5282 5282 5282 5280 5281 5281 5281 5282 5283 5284 5286 5287 5287 5288 5289 5291 5291 5291 5296 5299 5301 5304 5307 5309 5311 5314 5318
Wind_Speed
37 37 36 34 33 31 33 34 36 38 37 36 37 36 35 34 33 33 33 33 32 29 27 26 25 25 25 26 28 31 33 34 35 35 35 36 36 37 37 36 36 36 37
39 40 39 37 35 35 35 37 39 41 40 39 40 39 38 35 36 36 37 37 34 33 31 30 30 29 29 29 29 31 34 37 38 38 39 39 39 39 39 38 38 38 39
40 42 42 40 38 38 39 41 43 43 42 42 42 41 39 39 40 41 42 40 37 36 35 35 34 34 33 33 33 33 35 39 40 41 42 42 42 42 41 40 40 40 41
41 42 43 42 43 43 43 44 45 46 46 46 45 45 44 44 44 45 44 42 41 41 41 40 40 39 39 39 39 38 38 40 42 44 45 45 44 44 43 42 43 42 42
43 44 45 45 45 45 48 49 49 49 49 49 49 49 48 48 48 48 47 46 45 45 45 45 45 44 44 43 43 43 42 42 43 45 46 46 45 45 45 45 44 44 43
48 48 48 48 47 49 51 51 52 53 54 54 55 54 53 52 52 51 50 50 50 49 49 49 49 49 48 47 47 47 47 45 45 46 47 47 47 47 47 46 46 46 45
51 52 52 52 51 49 49 50 52 55 56 57 58 58 57 55 55 54 54 54 53 53 53 54 54 53 51 50 49 49 48 48 47 48 48 48 48 48 49 48 49 48 47
57 56 56 56 55 54 53 55 54 56 57 57 56 58 59 58 58 58 58 58 57 58 58 57 57 55 54 53 52 52 52 52 51 51 51 50 49 50 51 50 51 50 49
61 59 59 60 59 58 58 59 58 57 58 59 59 61 63 62 60 59 59 60 61 61 60 59 58 57 56 56 56 55 55 54 54 53 53 52 51 52 52 52 52 52 51
66 64 62 62 64 63 63 63 61 60 59 59 58 60 62 63 64 64 63 63 62 62 62 60 59 58 58 58 58 58 58 58 57 56 55 55 54 54 54 54 54 53 53
68 65 66 66 67 67 67 66 65 62 59 59 63 64 65 65 66 65 66 65 64 64 63 61 60 60 60 61 61 62 63 63 62 59 58 57 56 57 56 57 56 56 56
70 67 64 63 63 63 62 64 65 65 64 64 67 68 67 67 67 71 73 65 62 63 63 62 62 64 64 65 65 66 66 67 66 65 60 58 59 60 61 61 59 58 58
72 71 70 68 68 69 67 66 66 67 70 69 70 70 72 68 69 71 74 76 67 67 68 65 65 67 70 70 70 69 69 69 68 67 65 64 65 65 66 66 66 65 65
76 75 74 74 74 74 74 72 71 70 71 74 75 75 74 71 72 74 73 73 71 73 72 69 68 69 70 71 72 73 72 70 70 71 71 70 69 70 71 72 73 73 71
80 80 79 79 78 75 76 73 70 73 75 72 74 79 77 80 82 77 76 75 72 73 73 71 68 69 69 70 73 70 73 74 74 74 73 74 74 73 73 73 75 77 76
60 72 81 80 78 77 71 73 73 73 75 77 79 81 82 77 78 86 84 84 78 77 76 78 75 72 76 76 75 77 79 79 80 80 79 79 80 81 77 77 79 80 80
79 74 70 67 67 74 80 76 74 72 75 74 72 75 77 80 87 88 86 84 79 78 78 79 82 80 81 82 82 81 81 84 89 89 88 89 89 86 81 79 82 88 90
58 61 56 61 73 76 74 75 75 78 77 78 83 79 79 78 79 83 85 89 85 85 88 88 90 88 86 88 92 92 92 92 94 94 92 89 88 90 87 88 89 91 93
49 51 52 54 57 57 60 62 65 72 77 79 81 83 81 78 80 85 88 90 90 92 89 86 86 88 91 91 93 94 94 90 88 94 93 92 92 94 90 90 89 90 89
52 53 55 56 57 57 57 58 61 64 67 68 71 73 74 75 78 79 84 88 89 86 85 82 85 86 88 93 96 95 94 96 99 97 100 96 97 102 98 95 93 94 90
48 50 51 51 53 53 53 55 56 56 58 60 63 64 66 67 69 73 78 81 81 79 79 79 80 81 83 86 88 88 88 87 83 83 83 83 83 83 86 87 92 90 86
45 47 47 48 50 51 52 52 54 55 57 58 59 59 60 63 63 64 64 65 66 66 66 68 70 74 78 81 84 89 89 93 92 86 87 86 83 80 81 79 79 77 77
51 52 52 53 54 56 57 57 58 58 59 59 59 60 61 62 63 63 63 63 65 65 65 65 65 65 66 66 67 69 71 71 75 78 79 78 78 77 77 74 74 75 74
53 55 56 58 59 61 63 65 65 65 64 64 64 65 67 68 68 68 68 68 69 69 68 68 68 68 68 68 67 66 65 65 65 65 65 67 68 70 71 72 72 71 71
57 58 59 60 61 63 64 65 67 68 67 67 68 69 69 69 70 70 71 71 71 71 70 70 70 69 68 68 68 68 68 69 68 68 66 65 64 64 66 67 67 69 70
63 64 66 67 68 69 71 72 74 75 75 75 76 76 76 76 76 76 76 76 76 76 76 75 75 74 73 72 72 72 71 70 70 71 70 70 70 69 68 67 67 68 69
Wind_Direction
262 262 261 260 262 262 262 261 259 258 256 255 255 254 254 256 258 256 258 261 263 269 277 280 283 283 281 277 268 262 258 258 257 258 259 260 260 262 265 267 267 266 266
264 264 264 263 260 255 254 256 256 255 254 253 254 255 255 256 256 256 257 259 262 266 271 274 278 281 283 281 277 269 262 259 257 257 258 260 261 262 263 263 264 265 265
264 264 262 263 261 256 251 252 254 257 257 255 255 256 256 254 253 256 258 261 263 264 266 269 272 276 280 281 279 274 267 261 259 258 258 258 259 260 262 262 262 261 262
260 263 264 262 259 258 256 253 253 254 256 256 256 255 255 254 255 258 261 262 262 263 264 267 269 272 275 278 278 276 269 263 260 259 258 258 258 259 259 259 258 259 259
260 260 261 264 263 260 260 260 259 258 256 257 256 256 256 256 257 259 260 261 261 262 264 266 268 270 272 273 275 274 270 266 262 259 258 258 260 261 260 258 258 257 258
260 262 262 261 260 263 262 260 261 263 261 259 258 258 257 256 258 260 261 262 262 263 264 266 267 268 269 270 271 272 272 268 263 260 259 259 259 261 260 259 258 258 259
261 261 262 263 261 261 262 263 262 261 260 261 261 260 259 260 260 260 261 262 262 263 263 264 266 267 268 268 269 270 270 268 265 261 259 259 260 260 260 258 257 258 259
265 264 262 263 264 263 260 258 258 258 258 258 257 261 261 258 259 260 260 261 261 263 264 264 265 266 266 266 267 267 268 267 265 262 259 258 259 259 259 258 258 259 261
267 265 265 264 262 260 260 259 258 258 259 259 258 256 255 257 260 261 261 261 263 263 264 264 263 264 264 264 265 265 266 267 267 266 264 261 260 260 259 257 258 259 262
271 269 267 265 265 264 264 264 262 261 259 259 257 256 256 258 258 259 259 262 262 263 263 263 262 262 262 263 263 264 265 265 265 266 266 264 262 262 263 263 261 262 263
266 265 265 265 265 264 263 263 264 263 261 257 258 258 257 258 257 256 259 260 261 262 262 261 262 263 262 262 263 264 265 266 266 265 264 264 264 264 266 267 266 265 264
267 265 265 264 263 264 263 263 262 261 260 257 257 258 258 257 254 255 257 262 260 261 263 261 261 261 262 263 263 263 264 265 266 266 264 264 266 266 267 270 268 268 269
267 267 267 266 263 264 265 262 259 257 259 258 258 258 259 259 254 257 259 263 261 260 261 263 263 263 262 262 262 262 264 265 266 264 265 264 264 265 265 264 265 266 266
261 262 262 263 264 264 264 263 262 260 258 255 255 255 256 260 255 256 263 266 264 259 258 261 263 263 262 262 261 261 261 262 261 261 260 261 263 265 266 268 269 270 267
252 255 256 258 259 262 262 262 261 261 259 257 257 254 255 254 254 258 267 265 261 259 259 259 258 260 261 261 259 258 262 262 262 260 259 261 261 263 265 268 269 269 269
253 250 252 252 251 253 248 245 243 244 245 245 245 245 247 251 258 256 254 256 256 260 259 260 258 257 257 259 258 259 257 259 260 259 259 260 263 263 262 264 266 268 268
270 265 258 252 247 244 243 245 246 245 243 245 244 245 247 249 251 250 251 252 254 256 256 257 256 258 259 258 259 260 260 259 258 258 258 259 260 261 263 263 263 264 267
268 269 268 271 268 269 262 252 257 257 258 256 254 253 255 257 259 257 258 254 253 253 255 256 257 258 262 261 259 259 261 259 255 257 259 264 264 260 256 265 267 266 265
264 264 263 262 263 262 264 266 268 272 272 272 272 271 272 271 271 271 269 268 270 267 265 266 265 265 264 262 261 261 259 254 257 260 261 264 264 260 263 267 264 262 264
269 269 270 269 269 269 269 269 268 268 267 267 267 267 266 265 266 264 263 264 264 265 266 266 266 266 265 263 263 264 262 262 265 268 266 264 263 260 264 263 264 263 262
274 273 272 271 272 273 272 271 270 269 268 268 268 268 268 267 266 265 265 265 265 265 265 265 264 263 262 261 262 263 264 264 263 263 264 264 262 264 266 265 266 265 261
282 281 279 278 277 276 275 274 274 274 273 273 272 271 270 270 268 268 267 267 266 266 266 265 265 265 263 261 261 260 260 258 259 260 261 261 262 262 261 260 259 256 255
279 278 277 277 278 278 277 275 275 274 273 273 273 272 272 272 273 273 272 270 270 268 267 267 266 266 266 265 264 264 265 266 267 264 262 260 259 258 257 257 256 256 255
280 279 278 277 276 276 275 275 273 272 272 271 271 270 270 270 270 269 268 267 267 267 267 267 267 266 266 266 266 266 266 266 265 263 261 262 262 262 259 257 256 254 253
282 281 280 279 278 277 276 276 276 275 273 272 270 269 268 268 268 268 268 268 267 267 267 267 266 265 265 265 265 265 264 264 263 262 263 262 260 258 259 259 259 257 255
283 282 281 280 279 278 277 276 275 274 274 273 272 272 271 271 270 269 270 270 269 268 268 268 267 267 267 266 266 265 264 263 262 262 261 259 259 259 259 258 255 255 256